| time (UTC) | temp F | wind direction | speed MPH | gust MPH | rain 1hr in | rain 24hr in | rain mn in | humidity % | barometer mb |
| 20260906182502 | 88 | 172 | 0.0 | 0.0 | 0.00 | 0.00 | 0.00 | 59 | 1015.1 |
| 20260906182003 | 88 | 157 | 0.0 | 0.0 | 0.00 | 0.00 | 0.00 | 61 | 1015.1 |
| 20260906181503 | 88 | 172 | 0.0 | 0.0 | 0.00 | 0.00 | 0.00 | 61 | 1015.2 |
| 20260906181003 | 88 | 173 | 0.0 | 0.0 | 0.00 | 0.00 | 0.00 | 61 | 1015.2 |
| 20260906180506 | 88 | 166 | 0.0 | 0.0 | 0.00 | 0.00 | 0.00 | 61 | 1015.2 |
| 20260906180004 | 88 | 158 | 0.0 | 0.0 | 0.00 | 0.00 | 0.00 | 62 | 1015.2 |
| 20260906175505 | 87 | 132 | 0.0 | 1.0 | 0.00 | 0.00 | 0.00 | 63 | 1015.3 |
| 20260906175004 | 87 | 193 | 0.0 | 1.0 | 0.00 | 0.00 | 0.00 | 64 | 1015.3 |
| 20260906174504 | 87 | 147 | 0.0 | 1.0 | 0.00 | 0.00 | 0.00 | 64 | 1015.4 |
| 20260906174002 | 87 | 159 | 0.0 | 0.0 | 0.00 | 0.00 | 0.00 | 65 | 1015.5 |
| 20260906173502 | 87 | 173 | 0.0 | 1.0 | 0.00 | 0.00 | 0.00 | 65 | 1015.5 |
| 20260906173004 | 87 | 149 | 0.0 | 1.0 | 0.00 | 0.00 | 0.00 | 66 | 1015.4 |
| 20260906172504 | 86 | 144 | 0.0 | 0.0 | 0.00 | 0.00 | 0.00 | 66 | 1015.6 |
| 20260906172003 | 85 | 101 | 0.0 | 0.0 | 0.00 | 0.00 | 0.00 | 67 | 1015.7 |
| 20260906171502 | 85 | 170 | 0.0 | 1.0 | 0.00 | 0.00 | 0.00 | 68 | 1015.9 |
| 20260906171003 | 85 | 136 | 0.0 | 6.0 | 0.00 | 0.00 | 0.00 | 69 | 1015.9 |
| 20260906170505 | 84 | 171 | 0.0 | 6.0 | 0.00 | 0.00 | 0.00 | 70 | 1016.1 |
| 20260906170003 | 84 | 128 | 0.0 | 8.0 | 0.00 | 0.00 | 0.00 | 70 | 1016.2 |
| 20260906165504 | 84 | 198 | 0.0 | 8.0 | 0.00 | 0.00 | 0.00 | 70 | 1016.2 |
| 20260906165006 | 84 | 140 | 0.0 | 7.0 | 0.00 | 0.00 | 0.00 | 71 | 1016.1 |
| 20260906164505 | 83 | 122 | 0.0 | 7.0 | 0.00 | 0.00 | 0.00 | 71 | 1016.2 |
| 20260906164004 | 83 | 142 | 0.0 | 5.0 | 0.00 | 0.00 | 0.00 | 72 | 1016.2 |
| 20260906163503 | 83 | 136 | 0.0 | 3.0 | 0.00 | 0.00 | 0.00 | 73 | 1016.3 |
| 20260906163005 | 83 | 138 | 0.0 | 3.0 | 0.00 | 0.00 | 0.00 | 75 | 1016.3 |
| 20260906162503 | 82 | 161 | 0.0 | 0.0 | 0.00 | 0.00 | 0.00 | 76 | 1016.3 |
| 20260906162003 | 82 | 107 | 0.0 | 7.0 | 0.00 | 0.00 | 0.00 | 76 | 1016.3 |
| 20260906161505 | 82 | 146 | 0.0 | 7.0 | 0.00 | 0.00 | 0.00 | 77 | 1016.5 |
| 20260906161006 | 81 | 132 | 0.0 | 0.0 | 0.00 | 0.00 | 0.00 | 77 | 1016.5 |
| 20260906160503 | 81 | 119 | 0.0 | 0.0 | 0.00 | 0.00 | 0.00 | 77 | 1016.4 |
| 20260906160003 | 81 | 123 | 0.0 | 0.0 | 0.00 | 0.00 | 0.00 | 78 | 1016.4 |
| 20260906155503 | 81 | 294 | 0.0 | 0.0 | 0.00 | 0.00 | 0.00 | 79 | 1016.6 |
| 20260906155003 | 81 | 294 | 0.0 | 0.0 | 0.00 | 0.00 | 0.00 | 80 | 1016.5 |
| 20260906154509 | 81 | 294 | 0.0 | 0.0 | 0.00 | 0.00 | 0.00 | 81 | 1016.5 |
| 20260906154003 | 80 | 294 | 0.0 | 0.0 | 0.00 | 0.00 | 0.00 | 80 | 1016.5 |
| 20260906153503 | 80 | 294 | 0.0 | 0.0 | 0.00 | 0.00 | 0.00 | 80 | 1016.7 |
| 20260906153011 | 80 | 294 | 0.0 | 0.0 | 0.00 | 0.00 | 0.00 | 81 | 1016.6 |
| 20260906152504 | 80 | 294 | 0.0 | 0.0 | 0.00 | 0.00 | 0.00 | 81 | 1016.7 |
| 20260906152003 | 80 | 296 | 0.0 | 0.0 | 0.00 | 0.00 | 0.00 | 81 | 1016.5 |
| 20260906151505 | 80 | 296 | 0.0 | 0.0 | 0.00 | 0.00 | 0.00 | 81 | 1016.4 |
| 20260906151003 | 80 | 296 | 0.0 | 0.0 | 0.00 | 0.00 | 0.00 | 81 | 1016.5 |
| 20260906150503 | 80 | 268 | 0.0 | 7.0 | 0.00 | 0.00 | 0.00 | 81 | 1016.5 |
| 20260906150010 | 80 | 159 | 0.0 | 7.0 | 0.00 | 0.00 | 0.00 | 81 | 1016.1 |
| 20260906145503 | 80 | 135 | 2.0 | 7.0 | 0.00 | 0.00 | 0.00 | 82 | 1015.9 |
| 20260906145004 | 80 | 138 | 0.0 | 8.0 | 0.00 | 0.00 | 0.00 | 83 | 1015.9 |
| 20260906144508 | 80 | 127 | 2.0 | 10.0 | 0.00 | 0.00 | 0.00 | 83 | 1015.8 |
| 20260906144004 | 80 | 120 | 1.0 | 10.0 | 0.00 | 0.00 | 0.00 | 83 | 1015.7 |
| 20260906143503 | 79 | 110 | 2.0 | 9.0 | 0.00 | 0.00 | 0.00 | 84 | 1015.7 |
| 20260906143007 | 79 | 135 | 1.0 | 10.0 | 0.00 | 0.00 | 0.00 | 84 | 1015.6 |
| 20260906142503 | 79 | 126 | 5.0 | 10.0 | 0.00 | 0.00 | 0.00 | 84 | 1015.7 |
| 20260906142004 | 79 | 135 | 5.0 | 10.0 | 0.00 | 0.00 | 0.00 | 84 | 1015.8 |
| 20260906141505 | 79 | 132 | 3.0 | 12.0 | 0.00 | 0.00 | 0.00 | 84 | 1015.7 |
| 20260906141004 | 79 | 147 | 6.0 | 12.0 | 0.00 | 0.00 | 0.00 | 85 | 1015.7 |
| 20260906140505 | 79 | 155 | 6.0 | 13.0 | 0.00 | 0.00 | 0.00 | 85 | 1015.8 |
| 20260906140006 | 79 | 130 | 7.0 | 13.0 | 0.00 | 0.00 | 0.00 | 86 | 1015.8 |
| 20260906135503 | 79 | 117 | 6.0 | 12.0 | 0.00 | 0.00 | 0.00 | 87 | 1015.8 |
| 20260906135004 | 79 | 150 | 4.0 | 12.0 | 0.00 | 0.00 | 0.00 | 87 | 1015.9 |
| 20260906134511 | 79 | 143 | 2.0 | 9.0 | 0.00 | 0.00 | 0.00 | 87 | 1015.9 |
| 20260906134003 | 79 | 130 | 6.0 | 9.0 | 0.00 | 0.00 | 0.00 | 87 | 1015.9 |
| 20260906133503 | 79 | 119 | 5.0 | 9.0 | 0.00 | 0.00 | 0.00 | 88 | 1015.9 |
| 20260906133016 | 79 | 147 | 4.0 | 11.0 | 0.00 | 0.00 | 0.00 | 88 | 1015.9 |
| 20260906132504 | 79 | 134 | 6.0 | 11.0 | 0.00 | 0.00 | 0.00 | 89 | 1016.0 |
| 20260906132003 | 79 | 162 | 5.0 | 10.0 | 0.00 | 0.00 | 0.00 | 90 | 1015.9 |
| 20260906131509 | 78 | 96 | 2.0 | 10.0 | 0.00 | 0.00 | 0.00 | 91 | 1015.9 |
| 20260906131003 | 78 | 153 | 5.0 | 10.0 | 0.00 | 0.00 | 0.00 | 91 | 1015.8 |
| 20260906130505 | 78 | 108 | 4.0 | 10.0 | 0.00 | 0.00 | 0.00 | 91 | 1015.7 |
| 20260906130009 | 78 | 123 | 5.0 | 9.0 | 0.00 | 0.00 | 0.00 | 92 | 1015.7 |
| 20260906125504 | 78 | 135 | 3.0 | 9.0 | 0.00 | 0.00 | 0.00 | 92 | 1015.7 |
| 20260906125004 | 77 | 120 | 4.0 | 9.0 | 0.00 | 0.00 | 0.00 | 92 | 1015.5 |
| 20260906124509 | 77 | 123 | 4.0 | 9.0 | 0.00 | 0.00 | 0.00 | 92 | 1015.4 |
| 20260906124003 | 77 | 144 | 4.0 | 9.0 | 0.00 | 0.00 | 0.00 | 92 | 1015.4 |
| 20260906123502 | 77 | 134 | 5.0 | 9.0 | 0.00 | 0.00 | 0.00 | 92 | 1015.2 |
| 20260906123022 | 77 | 131 | 4.0 | 9.0 | 0.00 | 0.00 | 0.00 | 92 | 1015.3 |
| 20260906122507 | 77 | 139 | 3.0 | 9.0 | 0.00 | 0.00 | 0.00 | 92 | 1015.2 |
| 20260906122006 | 77 | 121 | 3.0 | 9.0 | 0.00 | 0.00 | 0.00 | 92 | 1015.2 |
| 20260906121510 | 77 | 135 | 3.0 | 8.0 | 0.00 | 0.00 | 0.00 | 92 | 1015.1 |
| 20260906121009 | 77 | 144 | 4.0 | 7.0 | 0.00 | 0.00 | 0.00 | 92 | 1015.1 |
| 20260906120504 | 77 | 142 | 3.0 | 8.0 | 0.00 | 0.00 | 0.00 | 92 | 1015.2 |
| 20260906120013 | 77 | 117 | 3.0 | 8.0 | 0.00 | 0.00 | 0.00 | 92 | 1015.1 |
| 20260906115508 | 76 | 128 | 3.0 | 8.0 | 0.00 | 0.00 | 0.00 | 91 | 1015.0 |
| 20260906115003 | 76 | 115 | 3.0 | 8.0 | 0.00 | 0.00 | 0.00 | 91 | 1014.8 |
| 20260906114514 | 76 | 142 | 3.0 | 5.0 | 0.00 | 0.00 | 0.00 | 91 | 1014.8 |
| 20260906114003 | 76 | 137 | 2.0 | 5.0 | 0.00 | 0.00 | 0.00 | 90 | 1014.7 |
| 20260906113506 | 76 | 135 | 2.0 | 6.0 | 0.00 | 0.00 | 0.00 | 90 | 1014.7 |
| 20260906113011 | 76 | 135 | 3.0 | 7.0 | 0.00 | 0.00 | 0.00 | 90 | 1014.4 |
| 20260906112506 | 76 | 119 | 4.0 | 8.0 | 0.00 | 0.00 | 0.00 | 90 | 1014.6 |
| 20260906112008 | 77 | 123 | 4.0 | 8.0 | 0.00 | 0.00 | 0.00 | 90 | 1014.5 |
| 20260906111511 | 77 | 118 | 3.0 | 8.0 | 0.00 | 0.00 | 0.00 | 90 | 1014.6 |
| 20260906111003 | 76 | 89 | 2.0 | 8.0 | 0.00 | 0.00 | 0.00 | 90 | 1014.7 |
| 20260906110506 | 76 | 144 | 2.0 | 4.0 | 0.00 | 0.00 | 0.00 | 90 | 1014.8 |
| 20260906110012 | 76 | 144 | 2.0 | 3.0 | 0.00 | 0.00 | 0.00 | 89 | 1014.9 |
| 20260906105507 | 76 | 144 | 1.0 | 3.0 | 0.00 | 0.00 | 0.00 | 89 | 1014.9 |
| 20260906105004 | 76 | 144 | 0.0 | 0.0 | 0.00 | 0.00 | 0.00 | 89 | 1014.9 |
| 20260906104512 | 76 | 144 | 0.0 | 0.0 | 0.00 | 0.00 | 0.00 | 89 | 1014.9 |
| 20260906104006 | 76 | 144 | 0.0 | 1.0 | 0.00 | 0.00 | 0.00 | 89 | 1014.8 |
| 20260906103504 | 77 | 144 | 0.0 | 1.0 | 0.00 | 0.00 | 0.00 | 88 | 1014.7 |
| 20260906103012 | 77 | 144 | 0.0 | 2.0 | 0.00 | 0.00 | 0.00 | 88 | 1014.7 |
| 20260906102505 | 77 | 144 | 0.0 | 3.0 | 0.00 | 0.00 | 0.00 | 88 | 1014.5 |
| 20260906102004 | 77 | 144 | 1.0 | 4.0 | 0.00 | 0.00 | 0.00 | 88 | 1014.4 |
| 20260906101524 | 77 | 144 | 1.0 | 4.0 | 0.00 | 0.00 | 0.00 | 88 | 1014.4 |
| 20260906101005 | 77 | 144 | 2.0 | 4.0 | 0.00 | 0.00 | 0.00 | 88 | 1014.3 |
| 20260906100511 | 77 | 144 | 2.0 | 5.0 | 0.00 | 0.00 | 0.00 | 88 | 1014.3 |
| 20260906100017 | 77 | 144 | 2.0 | 7.0 | 0.00 | 0.00 | 0.00 | 88 | 1014.3 |
| 20260906095507 | 77 | 131 | 2.0 | 7.0 | 0.00 | 0.00 | 0.00 | 87 | 1014.2 |
| 20260906095004 | 77 | 142 | 1.0 | 4.0 | 0.00 | 0.00 | 0.00 | 87 | 1014.1 |
| 20260906094513 | 77 | 142 | 1.0 | 3.0 | 0.00 | 0.00 | 0.00 | 87 | 1014.1 |
| 20260906094007 | 77 | 142 | 1.0 | 3.0 | 0.00 | 0.00 | 0.00 | 87 | 1014.2 |
| 20260906093508 | 77 | 142 | 1.0 | 4.0 | 0.00 | 0.00 | 0.00 | 87 | 1014.3 |
| 20260906093017 | 77 | 142 | 3.0 | 4.0 | 0.00 | 0.00 | 0.00 | 86 | 1014.3 |
| 20260906092508 | 77 | 142 | 2.0 | 5.0 | 0.00 | 0.00 | 0.00 | 86 | 1014.2 |
| 20260906092013 | 77 | 142 | 1.0 | 5.0 | 0.00 | 0.00 | 0.00 | 86 | 1014.2 |
| 20260906091516 | 77 | 142 | 2.0 | 5.0 | 0.00 | 0.00 | 0.00 | 86 | 1014.2 |
| 20260906091008 | 77 | 142 | 2.0 | 4.0 | 0.00 | 0.00 | 0.00 | 85 | 1014.2 |
| 20260906090505 | 77 | 142 | 2.0 | 5.0 | 0.00 | 0.00 | 0.00 | 85 | 1014.2 |
| 20260906090035 | 77 | 142 | 3.0 | 5.0 | 0.00 | 0.00 | 0.00 | 85 | 1014.2 |
| 20260906085508 | 77 | 142 | 2.0 | 4.0 | 0.00 | 0.00 | 0.00 | 85 | 1014.3 |
| 20260906085010 | 77 | 142 | 2.0 | 4.0 | 0.00 | 0.00 | 0.00 | 85 | 1014.3 |
| 20260906084512 | 77 | 142 | 1.0 | 5.0 | 0.00 | 0.00 | 0.00 | 85 | 1014.3 |
| 20260906084005 | 77 | 142 | 1.0 | 5.0 | 0.00 | 0.00 | 0.00 | 85 | 1014.3 |
| 20260906083508 | 77 | 134 | 0.0 | 4.0 | 0.00 | 0.00 | 0.00 | 85 | 1014.3 |
| 20260906083017 | 77 | 134 | 2.0 | 5.0 | 0.00 | 0.00 | 0.00 | 85 | 1014.2 |
| 20260906082506 | 77 | 140 | 2.0 | 7.0 | 0.00 | 0.00 | 0.00 | 85 | 1014.2 |
| 20260906082006 | 77 | 140 | 2.0 | 7.0 | 0.00 | 0.00 | 0.00 | 84 | 1014.1 |
| 20260906081503 | 77 | 133 | 2.0 | 7.0 | 0.00 | 0.00 | 0.00 | 84 | 1014.2 |
| 20260906081002 | 77 | 128 | 3.0 | 7.0 | 0.00 | 0.00 | 0.00 | 84 | 1014.1 |
| 20260906080504 | 78 | 134 | 3.0 | 6.0 | 0.00 | 0.00 | 0.00 | 84 | 1014.2 |
| 20260906080004 | 78 | 144 | 2.0 | 6.0 | 0.00 | 0.00 | 0.00 | 84 | 1014.2 |
| 20260906075503 | 78 | 144 | 3.0 | 7.0 | 0.00 | 0.00 | 0.00 | 84 | 1014.2 |
| 20260906075006 | 78 | 142 | 3.0 | 7.0 | 0.00 | 0.00 | 0.00 | 84 | 1014.2 |
| 20260906074507 | 78 | 145 | 3.0 | 7.0 | 0.00 | 0.00 | 0.00 | 83 | 1014.2 |
| 20260906074003 | 78 | 121 | 4.0 | 7.0 | 0.00 | 0.00 | 0.00 | 83 | 1014.2 |
| 20260906073504 | 78 | 131 | 2.0 | 7.0 | 0.00 | 0.00 | 0.00 | 83 | 1014.2 |
| 20260906073012 | 78 | 157 | 3.0 | 8.0 | 0.00 | 0.00 | 0.00 | 82 | 1014.1 |
| 20260906072510 | 79 | 145 | 2.0 | 9.0 | 0.00 | 0.00 | 0.00 | 82 | 1014.1 |
| 20260906072005 | 79 | 152 | 5.0 | 10.0 | 0.00 | 0.00 | 0.00 | 82 | 1014.2 |
| 20260906071508 | 79 | 134 | 4.0 | 10.0 | 0.00 | 0.00 | 0.00 | 82 | 1014.2 |
| 20260906071010 | 79 | 122 | 5.0 | 9.0 | 0.00 | 0.00 | 0.00 | 82 | 1014.3 |
| 20260906070505 | 79 | 149 | 4.0 | 8.0 | 0.00 | 0.00 | 0.00 | 82 | 1014.4 |
| 20260906070004 | 79 | 142 | 3.0 | 8.0 | 0.00 | 0.00 | 0.00 | 82 | 1014.3 |
| 20260906065507 | 79 | 141 | 3.0 | 8.0 | 0.00 | 0.00 | 0.00 | 82 | 1014.3 |
| 20260906065003 | 79 | 128 | 3.0 | 8.0 | 0.00 | 0.00 | 0.00 | 82 | 1014.3 |
| 20260906064504 | 79 | 140 | 3.0 | 8.0 | 0.00 | 0.00 | 0.00 | 82 | 1014.4 |
| 20260906064003 | 79 | 140 | 2.0 | 6.0 | 0.00 | 0.00 | 0.00 | 82 | 1014.3 |
| 20260906063504 | 79 | 111 | 3.0 | 7.0 | 0.00 | 0.00 | 0.00 | 82 | 1014.5 |
| 20260906063005 | 79 | 130 | 2.0 | 7.0 | 0.00 | 0.00 | 0.00 | 82 | 1014.6 |
| 20260906062504 | 79 | 143 | 2.0 | 7.0 | 0.00 | 0.00 | 0.00 | 82 | 1014.7 |
| 20260906062006 | 79 | 134 | 2.0 | 7.0 | 0.00 | 0.00 | 0.00 | 82 | 1014.6 |
| 20260906061518 | 79 | 111 | 2.0 | 5.0 | 0.00 | 0.00 | 0.00 | 82 | 1014.6 |
| 20260906061002 | 79 | 127 | 3.0 | 6.0 | 0.00 | 0.00 | 0.00 | 82 | 1014.6 |
| 20260906060506 | 79 | 140 | 2.0 | 7.0 | 0.00 | 0.00 | 0.00 | 81 | 1014.6 |
| 20260906060016 | 79 | 101 | 3.0 | 8.0 | 0.00 | 0.00 | 0.00 | 81 | 1014.6 |
| 20260906055505 | 79 | 146 | 2.0 | 8.0 | 0.00 | 0.00 | 0.00 | 81 | 1014.6 |
| 20260906055004 | 80 | 141 | 2.0 | 7.0 | 0.00 | 0.00 | 0.00 | 81 | 1014.7 |
| 20260906054513 | 80 | 128 | 2.0 | 7.0 | 0.00 | 0.00 | 0.00 | 80 | 1014.6 |
| 20260906054003 | 80 | 136 | 2.0 | 7.0 | 0.00 | 0.00 | 0.00 | 80 | 1014.5 |
| 20260906053503 | 80 | 138 | 3.0 | 7.0 | 0.00 | 0.00 | 0.00 | 80 | 1014.6 |
| 20260906053007 | 80 | 127 | 3.0 | 9.0 | 0.00 | 0.00 | 0.00 | 80 | 1014.6 |
| 20260906052504 | 80 | 117 | 2.0 | 9.0 | 0.00 | 0.00 | 0.00 | 79 | 1014.6 |
| 20260906052008 | 80 | 124 | 4.0 | 8.0 | 0.00 | 0.00 | 0.00 | 79 | 1014.7 |
| 20260906051506 | 80 | 129 | 3.0 | 7.0 | 0.00 | 0.00 | 0.00 | 79 | 1014.6 |
| 20260906051008 | 80 | 123 | 3.0 | 7.0 | 0.00 | 0.00 | 0.00 | 79 | 1014.4 |
| 20260906050506 | 81 | 138 | 4.0 | 8.0 | 0.00 | 0.00 | 0.00 | 79 | 1014.5 |
| 20260906050004 | 81 | 138 | 3.0 | 8.0 | 0.00 | 0.00 | 0.00 | 79 | 1014.4 |
| 20260906045504 | 81 | 126 | 4.0 | 9.0 | 0.00 | 0.00 | 0.00 | 79 | 1014.6 |
| 20260906045012 | 81 | 138 | 3.0 | 9.0 | 0.00 | 0.00 | 0.00 | 79 | 1014.4 |
| 20260906044524 | 81 | 98 | 4.0 | 8.0 | 0.00 | 0.00 | 0.00 | 79 | 1014.4 |
| 20260906044006 | 81 | 128 | 4.0 | 8.0 | 0.00 | 0.00 | 0.00 | 79 | 1014.5 |
| 20260906043503 | 81 | 127 | 2.0 | 7.0 | 0.00 | 0.00 | 0.00 | 79 | 1014.3 |
| 20260906043005 | 81 | 113 | 2.0 | 8.0 | 0.00 | 0.00 | 0.00 | 78 | 1014.5 |
| 20260906042503 | 81 | 112 | 3.0 | 8.0 | 0.00 | 0.00 | 0.00 | 78 | 1014.4 |
| 20260906042004 | 81 | 104 | 3.0 | 8.0 | 0.00 | 0.00 | 0.00 | 78 | 1014.4 |
| 20260906041508 | 81 | 118 | 2.0 | 7.0 | 0.00 | 0.00 | 0.00 | 78 | 1014.3 |
| 20260906041007 | 81 | 103 | 3.0 | 7.0 | 0.00 | 0.00 | 0.00 | 78 | 1014.5 |
| 20260906040503 | 81 | 98 | 3.0 | 7.0 | 0.00 | 0.00 | 0.00 | 78 | 1014.5 |
| 20260906040022 | 81 | 93 | 3.0 | 7.0 | 0.00 | 0.00 | 0.00 | 77 | 1014.5 |
| 20260906035509 | 82 | 108 | 3.0 | 7.0 | 0.00 | 0.00 | 0.00 | 77 | 1014.5 |
| 20260906035004 | 82 | 122 | 3.0 | 7.0 | 0.00 | 0.00 | 0.00 | 77 | 1014.6 |
| 20260906034508 | 82 | 98 | 2.0 | 4.0 | 0.00 | 0.00 | 0.00 | 77 | 1014.5 |
| 20260906034008 | 82 | 110 | 2.0 | 7.0 | 0.00 | 0.00 | 0.00 | 77 | 1014.5 |
| 20260906033510 | 82 | 102 | 2.0 | 7.0 | 0.00 | 0.00 | 0.00 | 76 | 1014.4 |
| 20260906033005 | 82 | 105 | 1.0 | 4.0 | 0.00 | 0.00 | 0.00 | 76 | 1014.4 |
| 20260906032507 | 82 | 115 | 2.0 | 4.0 | 0.00 | 0.00 | 0.00 | 76 | 1014.4 |
| 20260906032004 | 82 | 100 | 1.0 | 6.0 | 0.00 | 0.00 | 0.00 | 75 | 1014.4 |
| 20260906031504 | 82 | 89 | 1.0 | 6.0 | 0.00 | 0.00 | 0.00 | 75 | 1014.3 |
| 20260906031003 | 83 | 89 | 2.0 | 6.0 | 0.00 | 0.00 | 0.00 | 75 | 1014.3 |
| 20260906030504 | 83 | 100 | 2.0 | 6.0 | 0.00 | 0.00 | 0.00 | 75 | 1014.1 |
| 20260906030012 | 83 | 120 | 2.0 | 7.0 | 0.00 | 0.00 | 0.00 | 74 | 1014.0 |
| 20260906025507 | 83 | 120 | 2.0 | 7.0 | 0.00 | 0.00 | 0.00 | 74 | 1013.8 |
| 20260906025005 | 83 | 121 | 3.0 | 7.0 | 0.00 | 0.00 | 0.00 | 74 | 1013.8 |
| 20260906024518 | 83 | 121 | 2.0 | 7.0 | 0.00 | 0.00 | 0.00 | 74 | 1013.8 |
| 20260906024014 | 83 | 135 | 2.0 | 7.0 | 0.00 | 0.00 | 0.00 | 74 | 1013.7 |
| 20260906023506 | 83 | 148 | 3.0 | 7.0 | 0.00 | 0.00 | 0.00 | 74 | 1013.5 |
| 20260906023016 | 84 | 88 | 4.0 | 8.0 | 0.00 | 0.00 | 0.00 | 73 | 1013.4 |
| 20260906022511 | 84 | 108 | 3.0 | 8.0 | 0.00 | 0.00 | 0.00 | 73 | 1013.6 |
| 20260906022004 | 84 | 87 | 3.0 | 7.0 | 0.00 | 0.00 | 0.00 | 73 | 1013.4 |
| 20260906021512 | 84 | 85 | 2.0 | 6.0 | 0.00 | 0.00 | 0.00 | 72 | 1013.4 |
| 20260906021004 | 84 | 81 | 2.0 | 6.0 | 0.00 | 0.00 | 0.00 | 72 | 1013.3 |
| 20260906020513 | 84 | 94 | 2.0 | 7.0 | 0.00 | 0.00 | 0.00 | 72 | 1013.2 |
| 20260906020011 | 84 | 103 | 3.0 | 8.0 | 0.00 | 0.00 | 0.00 | 71 | 1013.0 |
| 20260906015504 | 85 | 98 | 3.0 | 8.0 | 0.00 | 0.00 | 0.00 | 71 | 1012.9 |
| 20260906015004 | 85 | 99 | 2.0 | 6.0 | 0.00 | 0.00 | 0.00 | 70 | 1012.8 |
| 20260906014517 | 85 | 97 | 1.0 | 6.0 | 0.00 | 0.00 | 0.00 | 70 | 1012.9 |
| 20260906014005 | 85 | 86 | 2.0 | 8.0 | 0.00 | 0.00 | 0.00 | 70 | 1012.8 |
| 20260906013509 | 85 | 101 | 3.0 | 8.0 | 0.00 | 0.00 | 0.00 | 69 | 1012.7 |
| 20260906013016 | 86 | 90 | 4.0 | 8.0 | 0.00 | 0.00 | 0.00 | 69 | 1012.6 |
| 20260906012503 | 86 | 77 | 2.0 | 5.0 | 0.00 | 0.00 | 0.00 | 68 | 1012.7 |
| 20260906012008 | 86 | 39 | 2.0 | 5.0 | 0.00 | 0.00 | 0.00 | 68 | 1012.7 |
| 20260906011527 | 87 | 32 | 0.0 | 3.0 | 0.00 | 0.00 | 0.00 | 67 | 1012.6 |
| 20260906011016 | 87 | 65 | 0.0 | 3.0 | 0.00 | 0.00 | 0.00 | 67 | 1012.4 |
| 20260906010504 | 87 | 100 | 0.0 | 1.0 | 0.00 | 0.00 | 0.00 | 66 | 1012.5 |
| 20260906010023 | 87 | 111 | 0.0 | 1.0 | 0.00 | 0.00 | 0.00 | 66 | 1012.5 |
| 20260906005502 | 88 | 49 | 0.0 | 0.0 | 0.00 | 0.00 | 0.00 | 65 | 1012.4 |
| 20260906005006 | 88 | 36 | 0.0 | 3.0 | 0.00 | 0.00 | 0.00 | 64 | 1012.3 |
| 20260906004508 | 88 | 72 | 0.0 | 4.0 | 0.00 | 0.00 | 0.00 | 64 | 1012.3 |
| 20260906004007 | 88 | 117 | 0.0 | 5.0 | 0.00 | 0.00 | 0.00 | 63 | 1012.2 |
| 20260906003507 | 88 | 134 | 0.0 | 7.0 | 0.00 | 0.00 | 0.00 | 63 | 1012.2 |
| 20260906003011 | 89 | 113 | 0.0 | 7.0 | 0.00 | 0.00 | 0.00 | 62 | 1012.1 |
| 20260906002507 | 89 | 132 | 0.0 | 4.0 | 0.00 | 0.00 | 0.00 | 61 | 1012.1 |
| 20260906002011 | 89 | 137 | 1.0 | 4.0 | 0.00 | 0.00 | 0.00 | 61 | 1012.1 |
| 20260906001506 | 89 | 149 | 0.0 | 5.0 | 0.00 | 0.00 | 0.00 | 60 | 1012.1 |
| 20260906001003 | 90 | 127 | 0.0 | 5.0 | 0.00 | 0.00 | 0.00 | 60 | 1012.1 |
| 20260906000514 | 90 | 144 | 0.0 | 5.0 | 0.00 | 0.00 | 0.00 | 60 | 1012.2 |
| 20260906000027 | 90 | 116 | 0.0 | 4.0 | 0.00 | 0.00 | 0.00 | 59 | 1012.3 |
| 20260905235507 | 90 | 120 | 0.0 | 7.0 | 0.00 | 0.00 | 0.00 | 59 | 1012.3 |
| 20260905235009 | 91 | 140 | 0.0 | 7.0 | 0.00 | 0.00 | 0.00 | 58 | 1012.3 |
| 20260905234520 | 91 | 127 | 2.0 | 7.0 | 0.00 | 0.00 | 0.00 | 58 | 1012.3 |
| 20260905234006 | 91 | 144 | 0.0 | 7.0 | 0.00 | 0.00 | 0.00 | 57 | 1012.2 |
| 20260905233510 | 91 | 142 | 2.0 | 8.0 | 0.00 | 0.00 | 0.00 | 57 | 1012.2 |
| 20260905233011 | 91 | 129 | 1.0 | 8.0 | 0.00 | 0.00 | 0.00 | 56 | 1012.2 |
| 20260905232502 | 91 | 136 | 1.0 | 7.0 | 0.00 | 0.00 | 0.00 | 56 | 1012.2 |
| 20260905232006 | 91 | 111 | 0.0 | 4.0 | 0.00 | 0.00 | 0.00 | 56 | 1012.1 |
| 20260905231003 | 92 | 142 | 0.0 | 5.0 | 0.00 | 0.00 | 0.00 | 55 | 1012.0 |
| 20260905230503 | 92 | 133 | 0.0 | 6.0 | 0.00 | 0.00 | 0.00 | 54 | 1012.0 |
| 20260905230009 | 92 | 148 | 0.0 | 6.0 | 0.00 | 0.00 | 0.00 | 55 | 1012.0 |
| 20260905225503 | 92 | 126 | 0.0 | 4.0 | 0.00 | 0.00 | 0.00 | 56 | 1012.0 |
| 20260905225003 | 92 | 125 | 0.0 | 4.0 | 0.00 | 0.00 | 0.00 | 55 | 1012.0 |
| 20260905224503 | 91 | 127 | 0.0 | 4.0 | 0.00 | 0.00 | 0.00 | 56 | 1012.1 |
| 20260905224005 | 91 | 136 | 0.0 | 4.0 | 0.00 | 0.00 | 0.00 | 56 | 1012.0 |
| 20260905223514 | 91 | 141 | 0.0 | 3.0 | 0.00 | 0.00 | 0.00 | 55 | 1012.0 |
| 20260905223006 | 91 | 140 | 0.0 | 4.0 | 0.00 | 0.00 | 0.00 | 55 | 1012.0 |
| 20260905222508 | 91 | 119 | 0.0 | 5.0 | 0.00 | 0.00 | 0.00 | 55 | 1012.0 |
| 20260905222010 | 91 | 166 | 0.0 | 8.0 | 0.00 | 0.00 | 0.00 | 55 | 1011.9 |
| 20260905221506 | 91 | 163 | 0.0 | 8.0 | 0.00 | 0.00 | 0.00 | 54 | 1011.8 |
| 20260905221004 | 91 | 128 | 0.0 | 10.0 | 0.00 | 0.00 | 0.00 | 54 | 1011.8 |
| 20260905220507 | 91 | 145 | 0.0 | 10.0 | 0.00 | 0.00 | 0.00 | 54 | 1011.8 |
| 20260905220018 | 91 | 127 | 0.0 | 10.0 | 0.00 | 0.00 | 0.00 | 53 | 1011.9 |
| 20260905215504 | 91 | 129 | 0.0 | 10.0 | 0.00 | 0.00 | 0.00 | 53 | 1012.0 |
| 20260905215003 | 91 | 134 | 0.0 | 8.0 | 0.00 | 0.00 | 0.00 | 54 | 1012.1 |
| 20260905214503 | 91 | 147 | 0.0 | 8.0 | 0.00 | 0.00 | 0.00 | 53 | 1012.0 |
| 20260905214004 | 91 | 112 | 0.0 | 4.0 | 0.00 | 0.00 | 0.00 | 53 | 1012.2 |
| 20260905213503 | 91 | 152 | 0.0 | 7.0 | 0.00 | 0.00 | 0.00 | 53 | 1012.2 |
| 20260905213003 | 91 | 108 | 0.0 | 7.0 | 0.00 | 0.00 | 0.00 | 53 | 1012.3 |
| 20260905212513 | 90 | 113 | 0.0 | 6.0 | 0.00 | 0.00 | 0.00 | 52 | 1012.4 |
| 20260905212003 | 91 | 97 | 0.0 | 7.0 | 0.00 | 0.00 | 0.00 | 52 | 1012.6 |
| 20260905211510 | 91 | 124 | 1.0 | 7.0 | 0.00 | 0.00 | 0.00 | 52 | 1012.6 |
| 20260905211010 | 91 | 128 | 1.0 | 7.0 | 0.00 | 0.00 | 0.00 | 51 | 1012.7 |
| 20260905210502 | 91 | 114 | 0.0 | 9.0 | 0.00 | 0.00 | 0.00 | 50 | 1012.8 |
| 20260905210007 | 91 | 136 | 0.0 | 9.0 | 0.00 | 0.00 | 0.00 | 51 | 1012.9 |
| 20260905205507 | 91 | 131 | 0.0 | 11.0 | 0.00 | 0.00 | 0.00 | 52 | 1012.9 |
| 20260905205010 | 90 | 110 | 0.0 | 11.0 | 0.00 | 0.00 | 0.00 | 51 | 1013.0 |
| 20260905204503 | 90 | 126 | 0.0 | 11.0 | 0.00 | 0.00 | 0.00 | 52 | 1013.0 |
| 20260905204007 | 90 | 104 | 4.0 | 11.0 | 0.00 | 0.00 | 0.00 | 51 | 1013.2 |
| 20260905203510 | 91 | 128 | 1.0 | 10.0 | 0.00 | 0.00 | 0.00 | 50 | 1013.3 |
| 20260905203003 | 91 | 121 | 0.0 | 9.0 | 0.00 | 0.00 | 0.00 | 51 | 1013.4 |
| 20260905202504 | 91 | 103 | 0.0 | 12.0 | 0.00 | 0.00 | 0.00 | 53 | 1013.5 |
| 20260905202003 | 91 | 105 | 1.0 | 12.0 | 0.00 | 0.00 | 0.00 | 54 | 1013.7 |
| 20260905201523 | 91 | 133 | 2.0 | 12.0 | 0.00 | 0.00 | 0.00 | 52 | 1013.8 |
| 20260905201006 | 91 | 86 | 0.0 | 9.0 | 0.00 | 0.00 | 0.00 | 53 | 1014.0 |
| 20260905200504 | 91 | 121 | 0.0 | 11.0 | 0.00 | 0.00 | 0.00 | 52 | 1014.1 |
| 20260905200010 | 91 | 126 | 1.0 | 11.0 | 0.00 | 0.00 | 0.00 | 52 | 1014.1 |
| 20260905195511 | 91 | 127 | 1.0 | 10.0 | 0.00 | 0.00 | 0.00 | 52 | 1014.2 |
| 20260905195005 | 91 | 76 | 1.0 | 8.0 | 0.00 | 0.00 | 0.00 | 54 | 1014.1 |
| 20260905194512 | 91 | 118 | 0.0 | 13.0 | 0.00 | 0.00 | 0.00 | 54 | 1014.1 |
| 20260905194013 | 90 | 105 | 3.0 | 14.0 | 0.00 | 0.00 | 0.00 | 53 | 1014.3 |
| 20260905193503 | 90 | 86 | 3.0 | 14.0 | 0.00 | 0.00 | 0.00 | 54 | 1014.3 |
| 20260905193007 | 91 | 89 | 3.0 | 11.0 | 0.00 | 0.00 | 0.00 | 55 | 1014.5 |
| 20260905192512 | 90 | 135 | 2.0 | 11.0 | 0.00 | 0.00 | 0.00 | 55 | 1014.6 |
| 20260905192013 | 90 | 94 | 2.0 | 14.0 | 0.00 | 0.00 | 0.00 | 55 | 1014.6 |
| 20260905191503 | 90 | 42 | 4.0 | 14.0 | 0.00 | 0.00 | 0.00 | 55 | 1014.7 |
| 20260905191004 | 90 | 98 | 3.0 | 12.0 | 0.00 | 0.00 | 0.00 | 55 | 1014.9 |
| 20260905190504 | 90 | 109 | 2.0 | 13.0 | 0.00 | 0.00 | 0.00 | 57 | 1015.1 |
| 20260905190007 | 89 | 111 | 2.0 | 15.0 | 0.00 | 0.00 | 0.00 | 57 | 1015.1 |
| 20260905185504 | 89 | 82 | 5.0 | 18.0 | 0.00 | 0.00 | 0.00 | 57 | 1015.3 |
| 20260905185010 | 89 | 107 | 6.0 | 18.0 | 0.00 | 0.00 | 0.00 | 57 | 1015.5 |
| 20260905184527 | 89 | 76 | 2.0 | 15.0 | 0.00 | 0.00 | 0.00 | 58 | 1015.5 |
| 20260905184004 | 89 | 47 | 3.0 | 17.0 | 0.00 | 0.00 | 0.00 | 58 | 1015.5 |
| 20260905183506 | 89 | 31 | 3.0 | 17.0 | 0.00 | 0.00 | 0.00 | 57 | 1015.7 |
| 20260905183023 | 89 | 94 | 4.0 | 18.0 | 0.00 | 0.00 | 0.00 | 58 | 1015.8 |